Location: Ladrillo (historical)
(32.8195°N, 117.2231°W)
Time: 18:51:07
(UTC+00:00)

NOAA 18 - Pass Details

Date: 21 April 2021
Orbit: 840 x 861 km, 99.0° (Epoch: 05 May)

Event Time Altitude Azimuth Distance (km) Brightness Sun altitude
Exits shadow 03:38:28 12° 69° (ENE) 2,348 7.1 -15.7°
Maximum altitude 03:39:04 12° 63° (ENE) 2,335 7.2 -15.8°
Drops below altitude 10° 03:40:56 10° 42° (NE) 2,463 7.5 -16.2°
Sets 03:44:59 0° 12° (NNE) 3,400 8.5 -16.9°
